#timestamp,LO_Frequency,Hit,Temp,Hum 
1480046415.8,286047027.1,N,0.0,0.0
1480046435.7,286047027.4,N,0.0,0.0
1480046455.5,286047028.1,N,0.0,0.0
1480046475.4,286047025.7,N,0.0,0.0
1480046495.2,286047025.9,N,0.0,0.0
1480046515.0,286047025.9,N,0.0,0.0
1480046515.9,286047025.9,N,0.0,0.0
1480046535.8,286047025.5,N,0.0,0.0
1480046555.6,286047025.5,N,0.0,0.0
1480046575.5,286047025.7,N,0.0,0.0
1480046595.3,286047026.0,N,0.0,0.0
1480046615.1,286047026.8,N,0.0,0.0
1480046635.9,286047024.9,N,0.0,0.0
1480046655.7,286047024.8,N,0.0,0.0
1480046675.5,286047022.6,N,0.0,0.0
1480046695.4,286047023.0,N,0.0,0.0
1480046715.2,286047020.5,N,0.0,0.0
1480046735.1,286047023.0,N,0.0,0.0
1480046736.0,286047023.0,N,0.0,0.0
1480046755.8,286047022.8,N,0.0,0.0
1480046775.6,286047023.1,N,0.0,0.0
1480046795.5,286047020.8,N,0.0,0.0
1480046815.3,286047021.5,N,0.0,0.0
1480046835.1,286047022.0,N,0.0,0.0
1480046855.9,286047019.0,N,0.0,0.0
1480046875.7,286047018.9,N,0.0,0.0
1480046895.6,286047022.0,N,0.0,0.0
1480046915.4,286047021.3,N,0.0,0.0
1480046935.2,286047021.8,N,0.0,0.0
1480046955.1,286047021.5,N,0.0,0.0
1480046956.0,286047021.5,N,0.0,0.0
1480046975.8,286047022.0,N,0.0,0.0
1480046995.7,286047019.5,N,0.0,0.0
1480047015.5,286047019.9,N,0.0,0.0
1480047035.3,286047019.3,N,0.0,0.0
1480047055.2,286047019.2,N,0.0,0.0
1480047075.9,286047019.2,N,0.0,0.0
1480047095.7,286047019.8,N,0.0,0.0
1480047115.6,286047017.4,N,0.0,0.0
1480047135.4,286047017.6,N,0.0,0.0
1480047155.3,286047018.2,N,0.0,0.0
1480047175.1,286047015.8,N,0.0,0.0
1480047176.0,286047015.8,N,0.0,0.0
1480047195.8,286047015.7,N,0.0,0.0
1480047215.7,286047018.7,N,0.0,0.0
1480047235.5,286047016.0,N,0.0,0.0
1480047255.3,286047016.9,N,0.0,0.0
1480047275.2,286047014.1,N,0.0,0.0
1480047295.0,286047014.7,N,0.0,0.0
1480047295.9,286047014.7,N,0.0,0.0
1480047315.8,286047012.5,N,0.0,0.0
1480047335.6,286047012.5,N,0.0,0.0
1480047355.4,286047012.5,N,0.0,0.0
1480047375.3,286047012.6,N,0.0,0.0
1480047395.1,286047012.8,N,0.0,0.0
1480047415.9,286047013.2,N,0.0,0.0
1480047435.7,286047013.9,N,0.0,0.0
1480047455.5,286047011.0,N,0.0,0.0
1480047475.4,286047011.6,N,0.0,0.0
1480047495.2,286047009.3,N,0.0,0.0
1480047515.1,286047012.2,N,0.0,0.0
1480047516.0,286047012.2,N,0.0,0.0
1480047535.8,286047012.4,N,0.0,0.0
1480047555.6,286047012.3,N,0.0,0.0
1480047575.5,286047010.1,N,0.0,0.0
1480047595.3,286047010.8,N,0.0,0.0
1480047615.1,286047010.4,N,0.0,0.0
1480047635.9,286047010.5,N,0.0,0.0
1480047655.7,286047010.5,N,0.0,0.0
1480047675.6,286047008.1,N,0.0,0.0
1480047695.4,286047008.5,N,0.0,0.0
1480047715.2,286047008.0,N,0.0,0.0
1480047735.1,286047008.9,N,0.0,0.0
1480047736.0,286047008.9,N,0.0,0.0
1480047755.8,286047006.2,N,0.0,0.0
1480047775.7,286047006.3,N,0.0,0.0
1480047795.5,286047006.3,N,0.0,0.0
1480047815.3,286047006.2,N,0.0,0.0
1480047835.2,286047008.9,N,0.0,0.0
1480047855.0,286047009.0,N,0.0,0.0
1480047855.9,286047009.0,N,0.0,0.0
1480047875.8,286047006.4,N,0.0,0.0
1480047895.6,286047007.3,N,0.0,0.0
1480047915.4,286047007.3,N,0.0,0.0
1480047935.3,286047007.2,N,0.0,0.0
1480047955.1,286047004.5,N,0.0,0.0
1480047975.8,286047005.7,N,0.0,0.0
1480047995.7,286047005.8,N,0.0,0.0
1480048015.5,286047005.6,N,0.0,0.0
1480048035.4,286047005.6,N,0.0,0.0
1480048055.2,286047003.3,N,0.0,0.0
1480048075.0,286047003.1,N,0.0,0.0
1480048075.9,286047003.1,N,0.0,0.0
1480048095.8,286047004.0,N,0.0,0.0
1480048115.6,286047001.6,N,0.0,0.0
1480048135.5,286047001.7,N,0.0,0.0
1480048155.3,286047002.2,N,0.0,0.0
1480048175.1,286046999.7,N,0.0,0.0
1480048195.9,286047000.6,N,0.0,0.0
1480048215.7,286047000.8,N,0.0,0.0
1480048235.5,286047001.0,N,0.0,0.0
1480048255.4,286047001.2,N,0.0,0.0
1480048275.2,286047000.5,N,0.0,0.0
1480048295.1,286047000.9,N,0.0,0.0
1480048296.0,286047000.9,N,0.0,0.0
1480048315.8,286047001.2,N,0.0,0.0
1480048335.6,286047001.2,N,0.0,0.0
1480048355.5,286047001.2,N,0.0,0.0
1480048375.3,286046998.1,N,0.0,0.0
1480048395.1,286047001.1,N,0.0,0.0
1480048415.9,286047000.8,N,0.0,0.0
1480048435.7,286046998.8,N,0.0,0.0
1480048455.6,286046998.9,N,0.0,0.0
1480048475.4,286046999.5,N,0.0,0.0
1480048495.2,286046996.5,N,0.0,0.0
1480048515.1,286046996.5,N,0.0,0.0
1480048516.0,286046996.5,N,0.0,0.0
1480048535.8,286046997.0,N,0.0,0.0
1480048555.7,286046996.6,N,0.0,0.0
1480048575.5,286046996.7,N,0.0,0.0
1480048595.3,286046997.5,N,0.0,0.0
1480048615.2,286046997.6,N,0.0,0.0
1480048635.0,286046994.9,N,0.0,0.0
1480048635.9,286046994.9,N,0.0,0.0
1480048655.8,286046995.4,N,0.0,0.0
1480048675.6,286046995.8,N,0.0,0.0
1480048695.4,286046995.7,N,0.0,0.0
1480048715.3,286046996.0,N,0.0,0.0
1480048735.1,286046993.8,N,0.0,0.0
1480048755.8,286046994.4,N,0.0,0.0
1480048775.7,286046992.4,N,0.0,0.0
1480048795.5,286046992.8,N,0.0,0.0
1480048815.4,286046990.4,N,0.0,0.0
1480048835.2,286046991.1,N,0.0,0.0
1480048855.0,286046991.3,N,0.0,0.0
1480048855.9,286046991.3,N,0.0,0.0
1480048875.8,286046991.4,N,0.0,0.0
1480048895.6,286046988.5,N,0.0,0.0
1480048915.5,286046988.5,N,0.0,0.0
1480048935.3,286046991.4,N,0.0,0.0
1480048955.1,286046991.0,N,0.0,0.0
1480048975.9,286046991.6,N,0.0,0.0
1480048995.7,286046989.3,N,0.0,0.0
1480049015.5,286046989.4,N,0.0,0.0
1480049035.4,286046988.8,N,0.0,0.0
1480049055.2,286046989.1,N,0.0,0.0
1480049075.1,286046989.7,N,0.0,0.0
1480049076.0,286046989.7,N,0.0,0.0
1480049095.8,286046989.8,N,0.0,0.0
1480049115.6,286046989.9,N,0.0,0.0
1480049135.5,286046987.5,N,0.0,0.0
1480049155.3,286046990.0,N,0.0,0.0
1480049175.2,286046987.7,N,0.0,0.0
1480049195.9,286046988.2,N,0.0,0.0
1480049215.7,286046988.0,N,0.0,0.0
1480049235.6,286046985.8,N,0.0,0.0
1480049255.4,286046985.9,N,0.0,0.0
1480049275.2,286046986.7,N,0.0,0.0
1480049295.1,286046986.0,N,0.0,0.0
1480049296.0,286046986.0,N,0.0,0.0
1480049315.8,286046985.9,N,0.0,0.0
1480049335.7,286046985.6,N,0.0,0.0
1480049355.5,286046985.6,N,0.0,0.0
1480049375.3,286046986.1,N,0.0,0.0
1480049395.2,286046986.3,N,0.0,0.0
1480049415.0,286046983.7,N,0.0,0.0
1480049415.9,286046983.7,N,0.0,0.0
1480049435.8,286046984.2,N,0.0,0.0
1480049455.6,286046984.4,N,0.0,0.0
1480049475.4,286046984.5,N,0.0,0.0
1480049495.3,286046984.9,N,0.0,0.0
1480049515.1,286046984.4,N,0.0,0.0
1480049535.8,286046984.4,N,0.0,0.0
1480049555.7,286046985.0,N,0.0,0.0
1480049575.5,286046984.5,N,0.0,0.0
1480049595.4,286046984.6,N,0.0,0.0
1480049615.2,286046985.1,N,0.0,0.0
1480049635.0,286046982.5,N,0.0,0.0
1480049635.9,286046982.5,N,0.0,0.0
1480049655.8,286046983.0,N,0.0,0.0
1480049675.6,286046983.0,N,0.0,0.0
1480049695.4,286046983.2,N,0.0,0.0
1480049715.3,286046983.2,N,0.0,0.0
1480049735.1,286046983.5,N,0.0,0.0
1480049755.9,286046983.5,N,0.0,0.0
1480049775.7,286046981.0,N,0.0,0.0
1480049795.5,286046981.1,N,0.0,0.0
1480049815.4,286046981.1,N,0.0,0.0
1480049835.2,286046978.9,N,0.0,0.0
1480049855.1,286046981.9,N,0.0,0.0
1480049856.0,286046981.9,N,0.0,0.0
1480049875.8,286046979.4,N,0.0,0.0
1480049895.6,286046979.3,N,0.0,0.0
1480049915.5,286046979.7,N,0.0,0.0
1480049935.3,286046980.0,N,0.0,0.0
1480049955.1,286046977.7,N,0.0,0.0
1480049975.9,286046977.4,N,0.0,0.0
1480049995.7,286046978.5,N,0.0,0.0
